sat.trackr.live / text

‹ back to catalog

GSAT0101 (GALILEO-PFM)

NORAD 37846 · 2011-060A

PAYLOAD ACTIVE UNKNOWN

§ Identity

Operator
Country
ESA
Launch date
2011-10-21
Launch site
FRGUI
Launch vehicle
Mass (kg)
RCS (m²)
12.62

Purposes: earth_obs, nav

External: N2YO · Heavens-Above · Gunter

§ Orbital elements

Epoch: 2026-05-22T00:55:44.329728Z

Period
844.70 min
Inclination
57.0040°
Eccentricity
0.0003643
Mean motion
1.70475642 rev/d
Perigee alt
23,211.2 km
Apogee alt
23,232.8 km
Semi-major
29,600.1 km
B*
0.0000e+0
RAAN
342.4699°
Arg perigee
41.9521°
Mean anomaly
318.0951°
Rev number
9,067

§ Raw data

GSAT0101 (GALILEO-PFM)1 37846U 11060A   26142.03870752 -.00000087  00000+0  00000+0 0  99972 37846  57.0040 342.4699 0003643  41.9521 318.0951  1.70475642 90676

JSON: /api/v1/satellites/37846 · /tle

For live sub-satellite position, see the globe view (requires WebGL).

§ Visibility from observer

Set your observer location to see the next 7 days of passes ≥ 10°. The values pass through the URL so the page stays shareable.

No JS? Fill the form by hand. The geolocation button needs JavaScript.